• In Uzbekistan
  • List of Countries
  • For 7 days
  • Water Temperature
  • Satellite Maps
  • Weather Map
  • Weather Widgets
  • user-avatar
    Login

    Hourly Weather Tatabanya

    Today, 23 October, Monday

    Time Temperature Precipitation Wind Pressure Humidity
    00:00 +8°C° 1.6 mm 6 mps 737 mmHg 87%
    01:00 +8°C° 1.6 mm 6 mps 737 mmHg 87%
    02:00 +6°C° 2.1 mm 7 mps 736 mmHg 86%
    03:00 +6°C° 2.1 mm 7 mps 736 mmHg 86%
    04:00 +6°C° 2.1 mm 7 mps 735 mmHg 85%
    05:00 +6°C° 1.2 mm 8 mps 735 mmHg 85%
    06:00 +6°C° 1.2 mm 8 mps 735 mmHg 85%
    07:00 +6°C° 1.2 mm 8 mps 735 mmHg 84%
    08:00 +6°C° 1.5 mm 8 mps 735 mmHg 84%
    09:00 +6°C° 1.5 mm 8 mps 735 mmHg 83%
    10:00 +6°C° 1.5 mm 8 mps 735 mmHg 83%
    11:00 +6°C° 1.1 mm 8 mps 735 mmHg 81%
    12:00 +6°C° 1.1 mm 8 mps 735 mmHg 80%
    13:00 +7°C° 1.1 mm 9 mps 735 mmHg 79%
    14:00 +7°C° 0.6 mm 8 mps 736 mmHg 79%
    15:00 +7°C° 0.6 mm 8 mps 736 mmHg 79%
    16:00 +7°C° 0.6 mm 8 mps 736 mmHg 79%
    17:00 +7°C° 0.5 mm 8 mps 736 mmHg 79%
    18:00 +7°C° 0.5 mm 8 mps 737 mmHg 79%
    19:00 +7°C° 0.5 mm 8 mps 737 mmHg 79%
    20:00 +7°C° 0.2 mm 8 mps 738 mmHg 79%
    21:00 +7°C° 0.2 mm 8 mps 738 mmHg 79%
    22:00 +7°C° 0.2 mm 8 mps 738 mmHg 78%
    23:00 +7°C° 0.1 mm 8 mps 739 mmHg 79%

    Tomorrow, 24 October, Tuesday

    Time Temperature Precipitation Wind Pressure Humidity
    00:00 +8°C° 0.1 mm 7 mps 739 mmHg 79%
    01:00 +8°C° 0.1 mm 7 mps 739 mmHg 79%
    02:00 +8°C° 0 mm 7 mps 740 mmHg 79%
    03:00 +8°C° 0 mm 7 mps 740 mmHg 79%
    04:00 +8°C° 0 mm 7 mps 740 mmHg 79%
    05:00 +8°C° 0 mm 7 mps 741 mmHg 79%
    06:00 +8°C° 0 mm 7 mps 741 mmHg 79%
    07:00 +6°C° 0 mm 7 mps 742 mmHg 79%
    08:00 +9°C° 0 mm 7 mps 742 mmHg 73%
    09:00 +10°C° 0 mm 7 mps 743 mmHg 68%
    10:00 +11°C° 0 mm 8 mps 743 mmHg 62%
    11:00 +11°C° 0 mm 8 mps 743 mmHg 60%
    12:00 +12°C° 0 mm 8 mps 744 mmHg 57%
    13:00 +13°C° 0 mm 8 mps 744 mmHg 54%
    14:00 +12°C° 0 mm 7 mps 744 mmHg 56%
    15:00 +11°C° 0 mm 6 mps 744 mmHg 58%
    16:00 +11°C° 0 mm 6 mps 744 mmHg 60%
    17:00 +10°C° 0 mm 5 mps 745 mmHg 63%
    18:00 +9°C° 0 mm 5 mps 745 mmHg 67%
    19:00 +8°C° 0 mm 4 mps 746 mmHg 70%
    20:00 +7°C° 0 mm 4 mps 746 mmHg 72%
    21:00 +8°C° 0 mm 3 mps 747 mmHg 74%
    22:00 +7°C° 0 mm 3 mps 747 mmHg 76%
    23:00 +7°C° 0 mm 3 mps 747 mmHg 77%

    Day after tomorrow, 25 October, Wednesday

    Time Temperature Precipitation Wind Pressure Humidity
    00:00 +6°C° 0 mm 2 mps 748 mmHg 79%
    01:00 +6°C° 0 mm 2 mps 748 mmHg 80%
    02:00 +6°C° 0 mm 2 mps 748 mmHg 81%
    03:00 +5°C° 0 mm 2 mps 748 mmHg 81%
    04:00 +5°C° 0 mm 2 mps 747 mmHg 82%
    05:00 +5°C° 0 mm 2 mps 748 mmHg 82%
    06:00 +5°C° 0 mm 2 mps 748 mmHg 82%
    07:00 +6°C° 0 mm 1 mps 748 mmHg 82%
    08:00 +7°C° 0 mm 2 mps 748 mmHg 75%
    09:00 +8°C° 0 mm 2 mps 749 mmHg 67%
    10:00 +10°C° 0 mm 2 mps 749 mmHg 60%
    11:00 +12°C° 0 mm 2 mps 749 mmHg 57%
    12:00 +14°C° 0 mm 2 mps 749 mmHg 54%
    13:00 +15°C° 0 mm 2 mps 748 mmHg 52%
    14:00 +14°C° 0 mm 1 mps 748 mmHg 56%
    15:00 +14°C° 0 mm 1 mps 748 mmHg 60%
    16:00 +14°C° 0 mm 1 mps 748 mmHg 64%
    17:00 +13°C° 0 mm 1 mps 748 mmHg 68%
    18:00 +12°C° 0 mm 1 mps 749 mmHg 73%
    19:00 +11°C° 0 mm 1 mps 749 mmHg 77%
    20:00 +11°C° 0 mm 1 mps 749 mmHg 79%
    21:00 +11°C° 0 mm 1 mps 749 mmHg 82%
    22:00 +11°C° 0 mm 1 mps 749 mmHg 84%
    23:00 +11°C° 0 mm 1 mps 749 mmHg 85%

    26 October, Thursday

    Time Temperature Precipitation Wind Pressure Humidity
    00:00 +10°C° 0 mm 1 mps 749 mmHg 86%
    01:00 +10°C° 0 mm 1 mps 749 mmHg 87%
    02:00 +10°C° 0 mm 1 mps 749 mmHg 88%
    03:00 +10°C° 0 mm 1 mps 749 mmHg 88%
    04:00 +10°C° 0 mm 1 mps 749 mmHg 89%
    05:00 +10°C° 0 mm 1 mps 749 mmHg 89%
    06:00 +10°C° 0 mm 1 mps 749 mmHg 88%
    07:00 +10°C° 0 mm 1 mps 749 mmHg 88%
    08:00 +12°C° 0 mm 1 mps 749 mmHg 81%
    09:00 +13°C° 0 mm 2 mps 749 mmHg 74%
    10:00 +15°C° 0 mm 2 mps 749 mmHg 67%
    11:00 +16°C° 0 mm 2 mps 749 mmHg 63%
    12:00 +18°C° 0 mm 2 mps 748 mmHg 60%
    13:00 +19°C° 0 mm 2 mps 748 mmHg 56%
    14:00 +18°C° 0 mm 2 mps 748 mmHg 59%
    15:00 +18°C° 0 mm 2 mps 747 mmHg 62%
    16:00 +17°C° 0 mm 2 mps 747 mmHg 66%
    17:00 +16°C° 0 mm 2 mps 747 mmHg 69%
    18:00 +15°C° 0 mm 2 mps 747 mmHg 73%
    19:00 +14°C° 0 mm 2 mps 746 mmHg 77%
    20:00 +14°C° 0 mm 2 mps 746 mmHg 78%
    21:00 +13°C° 0 mm 2 mps 746 mmHg 79%
    22:00 +13°C° 0 mm 2 mps 746 mmHg 80%
    23:00 +13°C° 0 mm 2 mps 745 mmHg 79%

    27 October, Friday

    Time Temperature Precipitation Wind Pressure Humidity
    00:00 +12°C° 0 mm 2 mps 745 mmHg 79%
    01:00 +11°C° 0 mm 3 mps 745 mmHg 79%
    02:00 +12°C° 0 mm 2 mps 744 mmHg 80%
    03:00 +12°C° 0 mm 2 mps 744 mmHg 80%
    04:00 +12°C° 0 mm 2 mps 743 mmHg 80%
    05:00 +12°C° 0 mm 2 mps 743 mmHg 81%
    06:00 +12°C° 0 mm 2 mps 743 mmHg 81%
    07:00 +12°C° 0 mm 2 mps 742 mmHg 82%
    08:00 +12°C° 0 mm 3 mps 742 mmHg 74%
    09:00 +14°C° 0 mm 4 mps 742 mmHg 67%
    10:00 +16°C° 0 mm 5 mps 741 mmHg 60%
    11:00 +17°C° 0 mm 5 mps 741 mmHg 58%
    12:00 +17°C° 0 mm 5 mps 740 mmHg 55%
    13:00 +19°C° 0 mm 6 mps 739 mmHg 53%
    14:00 +17°C° 0.1 mm 5 mps 739 mmHg 56%
    15:00 +16°C° 0.1 mm 5 mps 738 mmHg 60%
    16:00 +15°C° 0.1 mm 5 mps 738 mmHg 64%
    17:00 +14°C° 0.1 mm 5 mps 738 mmHg 67%
    18:00 +14°C° 0.1 mm 6 mps 738 mmHg 70%
    19:00 +13°C° 0.1 mm 6 mps 738 mmHg 72%
    20:00 +11°C° 0 mm 7 mps 739 mmHg 71%
    21:00 +10°C° 0 mm 7 mps 739 mmHg 69%
    22:00 +9°C° 0 mm 7 mps 739 mmHg 68%
    23:00 +8°C° 0 mm 7 mps 739 mmHg 70%

    28 October, Saturday

    Time Temperature Precipitation Wind Pressure Humidity
    00:00 +8°C° 0 mm 6 mps 739 mmHg 72%
    01:00 +7°C° 0 mm 6 mps 739 mmHg 73%
    02:00 +7°C° 0 mm 6 mps 739 mmHg 74%
    03:00 +7°C° 0 mm 6 mps 738 mmHg 75%
    04:00 +7°C° 0 mm 6 mps 738 mmHg 76%
    05:00 +7°C° 0 mm 5 mps 738 mmHg 75%
    06:00 +7°C° 0 mm 5 mps 738 mmHg 74%
    07:00 +7°C° 0 mm 4 mps 737 mmHg 74%
    08:00 +8°C° 0.1 mm 5 mps 737 mmHg 72%
    09:00 +8°C° 0.1 mm 5 mps 737 mmHg 70%
    10:00 +9°C° 0.1 mm 6 mps 737 mmHg 69%
    11:00 +9°C° 0.3 mm 6 mps 736 mmHg 67%
    12:00 +9°C° 0.3 mm 6 mps 736 mmHg 65%
    13:00 +10°C° 0.3 mm 7 mps 735 mmHg 63%
    14:00 +9°C° 0.2 mm 6 mps 735 mmHg 65%
    15:00 +9°C° 0.2 mm 5 mps 735 mmHg 66%
    16:00 +10°C° 0.2 mm 4 mps 734 mmHg 68%
    17:00 +8°C° 0.3 mm 4 mps 734 mmHg 71%
    18:00 +8°C° 0.3 mm 4 mps 734 mmHg 75%
    19:00 +7°C° 0.3 mm 4 mps 734 mmHg 79%
    20:00 +7°C° 0.2 mm 4 mps 735 mmHg 80%
    21:00 +7°C° 0.2 mm 5 mps 735 mmHg 81%
    22:00 +7°C° 0.2 mm 5 mps 735 mmHg 82%
    23:00 +7°C° 0 mm 5 mps 735 mmHg 82%

    29 October, Sunday

    Time Temperature Precipitation Wind Pressure Humidity
    00:00 +6°C° 0 mm 5 mps 735 mmHg 82%
    01:00 +6°C° 0 mm 5 mps 735 mmHg 82%
    02:00 +6°C° 0 mm 5 mps 736 mmHg 83%
    03:00 +5°C° 0 mm 5 mps 736 mmHg 84%
    04:00 +5°C° 0 mm 5 mps 736 mmHg 85%
    05:00 +5°C° 0 mm 5 mps 737 mmHg 84%
    06:00 +5°C° 0 mm 5 mps 738 mmHg 84%
    07:00 +5°C° 0 mm 5 mps 738 mmHg 83%
    08:00 +7°C° 0 mm 6 mps 739 mmHg 77%
    09:00 +8°C° 0 mm 6 mps 740 mmHg 71%
    10:00 +9°C° 0 mm 7 mps 740 mmHg 65%
    11:00 +10°C° 0 mm 7 mps 740 mmHg 62%
    12:00 +10°C° 0 mm 7 mps 740 mmHg 59%
    13:00 +11°C° 0 mm 7 mps 740 mmHg 56%
    14:00 +10°C° 0 mm 6 mps 740 mmHg 58%
    15:00 +10°C° 0 mm 6 mps 740 mmHg 60%
    16:00 +9°C° 0 mm 5 mps 740 mmHg 61%
    17:00 +8°C° 0 mm 5 mps 740 mmHg 64%
    18:00 +7°C° 0 mm 4 mps 740 mmHg 67%
    19:00 +7°C° 0 mm 4 mps 740 mmHg 70%
    20:00 +7°C° 0 mm 4 mps 740 mmHg 70%
    21:00 +7°C° 0 mm 4 mps 740 mmHg 70%
    22:00 +7°C° 0 mm 4 mps 740 mmHg 70%
    23:00 +7°C° 0.1 mm 4 mps 739 mmHg 71%
    Show more